Weather in Boden

Sweden     65°49′26″N   21°41′45″E
temp.,
°C
wind,
m/s
gust,
m/s
humid.,
%
clouds,
%
prec.,
mm/h
press.,
hPa
HPBL,
m
9 may, sun
sun923:000wsw25805 0.0 100584
02:00−1wsw25803 0.0 100690
05:00−1wsw17783 0.0 1006165
08:00+4w36530 0.0 1006587
11:00+8w46431 0.0 10071574
14:00+9wsw57395 0.0 10072194
17:00+9wsw474216 0.0 10072103
20:00+6s226792 0.0 100825
10 may, mon
mon1023:00+3s2779100 0.0 1007154
02:00+2s2892100 0.0 1008202
05:00+2s3994100 0.0 1008406
08:00+4s3791100 0.0 1009416
11:00+4s3593100 0.0 1010615
14:00+4s2595100 0.1 1010631
17:00+5sse2395100 0.1 1011340
20:00+4se1296100 0.1 101391
11 may, tue
tue1123:00+4ese1198100 0.0 101432
02:00+3e1498100 0.0 1014148
05:00+3e3899100 2.8 1013351
08:00+3e3998100 8.7 1011367
11:00+4sse1298100 0.1 1011132
14:00+9wsw3788100 0.1 1013543
17:00+11w3578100 0.0 1015663
20:00+9ese118997 0.0 101711
12 may, wed
wed1223:00+7e2297100 0.0 101960
02:00+5e2699100 0.1 1019197
05:00+4e3998100 2.5 1019369
08:00+5ene2598100 4.1 1019270
11:00+6nne1297100 0.0 1019295
14:00+5n2296100 0.4 1020184
17:00+6nnw239381 0.0 1020217
20:00+6n139562 0.0 1021139
13 may, thu
thu1323:00+4ne009740 0.0 102110
02:00+3ese019882 0.0 102010
05:00+5sse1198100 0.0 101977
08:00+8s249297 0.0 1019331
11:00+12s247750 0.0 1018537
14:00+16sse236699 0.0 1017538
17:00+15se346653 0.0 1015326
20:00+12ese12807 0.0 101597